[[{"header":{"parameterUnit":"m.s-1","parameterCategory":1,"la1":30.2991,"la2":30.254,"lo1":-89.0895,"lo2":-89.0444,"dx":0.0017,"dy":0.0017,"nx":28,"ny":28,"refTime":"2022-11-16T03:00:00:Z","depth":0,"parameterNumber":2,"parameterNumberName":"U-component_of_WINDS"},"data":[0,0,0,0,0,0,0,0,0,0,0,0,0,0,0,0,0,0,0,0,0,0,0,0,0,0,0,0,0,0,0,0,0,0,0,0,0,0,0,0,0,0,0,0,0,0,0,0,0,0,0,0,0,0,0,0,0,0,2.2057,2.2057,0,2.2067,2.2067,2.2067,2.2057,2.2057,2.2056,2.2056,2.2065,2.2065,2.2066,0,0,0,0,0,0,0,0,0,0,0,0,0,2.2029,2.203,2.2057,2.2057,2.2057,2.2067,2.2067,2.2067,2.2057,2.2057,2.2056,2.2056,2.2065,2.2065,2.2066,0,0,0,0,0,0,0,0,0,0,0,0,0,2.204,2.203,2.2057,2.2053,2.2053,2.2067,2.2067,2.2067,2.2057,2.2057,2.2056,2.2055,2.2064,2.2065,2.2066,2.2083,0,0,2.2069,2.2069,0,0,0,0,0,0,0,0,2.204,2.2041,2.2054,2.2054,2.2053,2.206,2.206,2.2072,2.2057,2.2056,2.2056,2.2055,2.2064,2.2065,2.2068,2.2084,2.2084,2.2069,2.2069,2.207,2.207,0,0,0,0,0,0,0,2.2039,2.2041,2.2061,2.2054,2.2054,2.2051,2.2052,2.2063,2.2063,2.2056,2.2055,2.2056,2.2063,2.2067,2.2068,2.2084,2.2069,2.207,2.207,2.2071,2.2115,2.2116,0,0,0,0,0,0,2.2039,2.204,2.206,2.2061,2.2045,2.2052,2.2053,2.2058,2.2063,2.2063,2.2057,2.2056,2.2066,2.2067,2.2068,2.2088,2.207,2.2071,2.2071,2.2114,2.2115,2.2116,0,0,0,0,0,0,2.2038,2.204,2.206,2.205,2.2053,2.2053,2.2059,2.2059,2.2062,2.2063,2.2063,2.206,2.2065,2.2067,2.208,2.2088,2.2071,2.2072,2.2114,2.2115,2.2116,2.2129,0,0,0,0,0,0,2.2037,2.204,2.2047,2.2051,2.2053,2.2072,2.206,2.206,2.2064,2.2063,2.2067,2.2067,2.2065,2.2078,2.2081,2.2089,2.2073,2.2113,2.2114,2.2115,2.2127,2.213,2.2132,0,0,0,0,0,2.2036,2.205,2.2047,2.205,2.2061,2.2072,2.2074,2.2071,2.2065,2.2071,2.2072,2.2067,2.2087,2.208,2.2082,2.2091,2.2112,2.2114,2.2115,2.2126,2.213,2.2132,0,0,0,0,0,0,2.2046,2.205,2.2047,2.2062,2.2067,2.207,2.2078,2.2075,2.2081,2.2079,2.2076,2.2077,2.2091,2.2093,2.2084,2.2108,2.2099,2.2101,2.2106,2.2109,2.2112,2.2111,2.2073,0,0,0,0,0,2.205,2.2059,2.2062,2.2075,2.2078,2.2078,2.2082,2.208,2.2085,2.2087,2.2088,2.2093,2.21,2.2105,2.2112,2.2128,2.2129,2.2136,2.2138,2.214,2.2141,2.215,2.2153,2.2121,2.2121,2.2121,0,0,2.2058,2.2062,2.2067,2.2077,2.208,2.2089,2.2079,2.2089,2.2095,2.2088,2.21,2.2102,2.2106,2.2121,2.2128,2.2123,2.2151,2.2142,2.2143,2.2144,2.2152,2.2155,2.2158,2.2122,2.2121,2.2121,0,0,2.2077,2.2081,2.2092,2.2096,2.2102,2.2102,2.2105,2.2109,2.211,2.2123,2.2117,2.2125,2.2138,2.2142,2.2145,2.2167,2.2162,2.217,2.2182,2.219,2.2193,2.2195,2.2202,2.2205,2.2172,2.2172,2.2172,0,2.2087,2.21,2.2099,2.2109,2.2113,2.2108,2.212,2.2123,2.2131,2.2134,2.2129,2.2145,2.2148,2.2163,2.2169,2.2172,2.2175,2.2169,2.2192,2.2195,2.2197,2.2204,2.2207,2.2172,2.2172,2.2172,2.2172,0,2.2111,2.212,2.2129,2.2137,2.2142,2.2153,2.2153,2.2159,2.2157,2.2158,2.2171,2.2175,2.2182,2.2186,2.2184,2.2201,2.2198,2.2193,2.2183,2.2201,2.2207,2.221,2.2174,2.2173,2.2173,2.2173,0,0,2.2135,2.2143,2.2146,2.215,2.2156,2.2163,2.2174,2.2182,2.2187,2.2193,2.2202,2.2214,2.2209,2.2213,2.2211,2.2219,2.2236,2.2213,2.2213,2.2216,2.2255,2.2258,2.2261,2.2233,2.2234,2.2234,2.2254,0,2.2154,2.2173,2.2172,2.219,2.2198,2.2194,2.2204,2.2209,2.221,2.2218,2.2219,2.2227,2.2221,2.2223,2.2231,2.2232,2.2244,2.2231,2.2241,2.2241,2.2239,2.2265,2.2268,2.2287,2.2257,2.2257,2.2258,0,2.2178,2.2185,2.2203,2.2209,2.2213,2.2221,2.2229,2.2236,2.2242,2.2243,2.2248,2.2246,2.2257,2.2248,2.2262,2.2254,2.2258,2.226,2.226,2.226,2.225,2.2265,2.2293,2.2295,2.2262,2.2261,2.2261,0,2.2193,2.2207,2.222,2.2224,2.2231,2.2237,2.224,2.2245,2.225,2.2257,2.2261,2.2269,2.2273,2.2279,2.2279,2.2272,2.2294,2.2285,2.2294,2.2294,2.2297,2.2297,2.2326,2.2302,2.2302,2.2302,2.2302,0,2.2213,2.2224,2.2227,2.2235,2.2247,2.2248,2.226,2.2263,2.2268,2.2276,2.2273,2.2281,2.2281,2.2288,2.2289,2.2301,2.2303,2.2303,2.2303,2.2303,2.2303,2.2305,2.2303,2.2303,2.2302,2.2302,2.2302,0,2.2231,2.2233,2.2247,2.2254,2.2255,2.2264,2.227,2.2277,2.2279,2.2289,2.2292,2.2295,2.2304,2.2305,2.2315,2.2315,2.233,2.2328,2.2328,2.2327,2.2336,2.2335,2.2366,2.237,2.2345,2.2345,2.2345,0,2.2243,2.2252,2.226,2.2265,2.2269,2.2278,2.2284,2.2285,2.229,2.2298,2.2305,2.2314,2.2321,2.2336,2.2338,2.2347,2.2345,2.2356,2.2346,2.2346,2.2344,2.2343,2.2344,2.2357,2.2357,2.2357,2.2358,0,2.2265,2.2266,2.2274,2.2283,2.229,2.2297,2.2304,2.2308,2.231,2.2317,2.2326,2.2332,2.2343,2.2352,2.2361,2.2364,2.2361,2.2361,2.2363,2.2363,2.2362,2.2362,2.2332,2.236,2.2359,2.2359,2.2359,2.2359,2.228,2.2288,2.2294,2.2304,2.2309,2.2316,2.2323,2.2326,2.2335,2.2344,2.2344,2.2355,2.2361,2.2372,2.2376,2.2384,2.238,2.2384,2.2385,2.2385,2.2386,2.2361,2.2386,2.2386,2.2385,2.2385,2.2385,0,2.2301,2.2305,2.2314,2.2324,2.2331,2.2329,2.2337,2.2343,2.2352,2.2359,2.2366,2.2378,2.2387,2.2391,2.2399,2.2405,2.2404,2.2407,2.2406,2.2407,2.2389,2.2386,2.2408,2.2408,2.2408,2.2408,2.2408,2.2408,2.2312,2.2325,2.2327,2.2343,2.2347,2.2358,2.2362,2.2368,2.2373,2.2386,2.2394,2.2397,2.2402,2.2412,2.242,2.2421,2.2424,2.2427,2.2428,2.2411,2.2408,2.2406,2.2403,2.2428,2.2428,2.2445,2.2445,2.2445]},{"header":{"parameterUnit":"m.s-1","parameterCategory":1,"la1":30.2991,"la2":30.254,"lo1":-89.0895,"lo2":-89.0444,"dx":0.0017,"dy":0.0017,"nx":28,"ny":28,"refTime":"2022-11-16T03:00:00:Z","depth":0,"parameterNumber":3,"parameterNumberName":"V-component_of_WINDS"},"data":[0,0,0,0,0,0,0,0,0,0,0,0,0,0,0,0,0,0,0,0,0,0,0,0,0,0,0,0,0,0,0,0,0,0,0,0,0,0,0,0,0,0,0,0,0,0,0,0,0,0,0,0,0,0,0,0,0,0,-5.3343,-5.3344,0,-5.3454,-5.3455,-5.3456,-5.3428,-5.3426,-5.3424,-5.3422,-5.353,-5.3535,-5.354,0,0,0,0,0,0,0,0,0,0,0,0,0,-5.3104,-5.3109,-5.3343,-5.3345,-5.3346,-5.3454,-5.3455,-5.3457,-5.3429,-5.3426,-5.3423,-5.3421,-5.3529,-5.3535,-5.3541,0,0,0,0,0,0,0,0,0,0,0,0,0,-5.321,-5.311,-5.3343,-5.3345,-5.3346,-5.3453,-5.3455,-5.3457,-5.3429,-5.3426,-5.3423,-5.342,-5.3527,-5.3534,-5.3541,-5.3651,0,0,-5.3564,-5.3567,0,0,0,0,0,0,0,0,-5.3204,-5.3219,-5.3343,-5.3345,-5.3347,-5.3424,-5.3411,-5.3522,-5.343,-5.3398,-5.3422,-5.3418,-5.3497,-5.3507,-5.3535,-5.3656,-5.3661,-5.3564,-5.3569,-5.3572,-5.3574,0,0,0,0,0,0,0,-5.3197,-5.3214,-5.3387,-5.3345,-5.3347,-5.3339,-5.3351,-5.3432,-5.3464,-5.34,-5.3399,-5.3412,-5.3498,-5.3528,-5.3537,-5.3663,-5.3564,-5.3571,-5.3575,-5.3578,-5.3881,-5.3884,0,0,0,0,0,0,-5.3189,-5.3208,-5.3383,-5.339,-5.3266,-5.3346,-5.3359,-5.3402,-5.3463,-5.3469,-5.3415,-5.3411,-5.3517,-5.3528,-5.3541,-5.3674,-5.3572,-5.3579,-5.3583,-5.3877,-5.3881,-5.3885,0,0,0,0,0,0,-5.3184,-5.3205,-5.3379,-5.3299,-5.332,-5.3354,-5.3403,-5.3406,-5.3436,-5.3474,-5.348,-5.344,-5.3515,-5.353,-5.3625,-5.3677,-5.3582,-5.3589,-5.3873,-5.3878,-5.3883,-5.3941,0,0,0,0,0,0,-5.3177,-5.3203,-5.3246,-5.33,-5.3325,-5.3462,-5.3406,-5.3411,-5.345,-5.3445,-5.3499,-5.3505,-5.3513,-5.3614,-5.3632,-5.3686,-5.3595,-5.3868,-5.3875,-5.3882,-5.3934,-5.3948,-5.3959,0,0,0,0,0,-5.3169,-5.3257,-5.3249,-5.327,-5.338,-5.3465,-5.3479,-5.3488,-5.3454,-5.3497,-5.3522,-5.3503,-5.3669,-5.3624,-5.3644,-5.37,-5.3865,-5.3873,-5.3881,-5.3929,-5.3945,-5.3959,0,0,0,0,0,0,-5.3206,-5.3264,-5.3255,-5.3364,-5.341,-5.346,-5.3515,-5.3505,-5.3561,-5.3554,-5.3561,-5.3574,-5.367,-5.3695,-5.3643,-5.381,-5.3762,-5.3774,-5.3791,-5.3807,-5.3819,-5.381,-5.3601,0,0,0,0,0,-5.3228,-5.3294,-5.334,-5.3431,-5.3455,-5.3481,-5.3519,-5.3522,-5.357,-5.3589,-5.362,-5.3666,-5.3728,-5.3768,-5.3828,-5.3938,-5.3949,-5.3987,-5.3999,-5.4009,-5.402,-5.408,-5.4097,-5.3912,-5.3912,-5.3912,0,0,-5.3271,-5.3311,-5.3352,-5.344,-5.3476,-5.3543,-5.3498,-5.357,-5.362,-5.3599,-5.3691,-5.3715,-5.3766,-5.3869,-5.3916,-5.3893,-5.4073,-5.4019,-5.4027,-5.4032,-5.409,-5.4108,-5.4123,-5.3918,-5.3917,-5.3916,0,0,-5.3386,-5.3423,-5.3503,-5.3541,-5.3597,-5.3614,-5.3634,-5.3686,-5.3702,-5.3794,-5.378,-5.3839,-5.3946,-5.3983,-5.4016,-5.4146,-5.4131,-5.4165,-5.4229,-5.4288,-5.4302,-5.4315,-5.4361,-5.4378,-5.4176,-5.4176,-5.4176,0,-5.3433,-5.3535,-5.3545,-5.362,-5.3659,-5.3645,-5.3726,-5.3761,-5.3833,-5.386,-5.3833,-5.3968,-5.4002,-5.4113,-5.4145,-5.4172,-5.4194,-5.4159,-5.43,-5.4313,-5.4325,-5.4369,-5.4387,-5.418,-5.4179,-5.4179,-5.4178,0,-5.359,-5.3661,-5.3719,-5.3791,-5.3836,-5.3914,-5.3935,-5.3979,-5.3979,-5.3998,-5.4092,-5.4132,-5.42,-5.4227,-5.4226,-5.4339,-5.4322,-5.4298,-5.4249,-5.4346,-5.4388,-5.4405,-5.4185,-5.4184,-5.4183,-5.4182,0,0,-5.373,-5.3808,-5.3829,-5.3862,-5.3924,-5.3978,-5.4055,-5.4123,-5.4161,-5.4211,-5.4275,-5.4367,-5.4345,-5.4382,-5.4386,-5.4437,-5.4538,-5.4406,-5.4408,-5.4429,-5.4664,-5.4682,-5.4702,-5.4529,-5.4532,-5.4535,-5.466,0,-5.385,-5.3987,-5.3999,-5.4121,-5.4187,-5.4175,-5.4242,-5.4286,-5.4307,-5.4364,-5.4386,-5.4451,-5.4417,-5.444,-5.4491,-5.4515,-5.4585,-5.4506,-5.4587,-5.459,-5.4575,-5.4724,-5.4743,-5.4859,-5.4676,-5.4679,-5.4681,0,-5.4008,-5.4065,-5.4195,-5.4248,-5.4276,-5.4336,-5.44,-5.4455,-5.4505,-5.4516,-5.4559,-5.4556,-5.4634,-5.4583,-5.469,-5.4636,-5.467,-5.4687,-5.4692,-5.4699,-5.4641,-5.4735,-5.4896,-5.4914,-5.4707,-5.4705,-5.4703,0,-5.4097,-5.4206,-5.4298,-5.4327,-5.4391,-5.4434,-5.4462,-5.4509,-5.455,-5.4605,-5.4631,-5.4693,-5.4728,-5.4776,-5.4789,-5.4751,-5.4896,-5.4846,-5.4907,-5.4907,-5.4937,-5.4935,-5.5106,-5.496,-5.4959,-5.4959,-5.4959,0,-5.4229,-5.4309,-5.4339,-5.4396,-5.4485,-5.4497,-5.4584,-5.461,-5.4653,-5.4713,-5.4706,-5.4762,-5.4777,-5.4836,-5.4847,-5.4934,-5.4949,-5.496,-5.4962,-5.4961,-5.4959,-5.4983,-5.4975,-5.4964,-5.4963,-5.4962,-5.4961,0,-5.4344,-5.4368,-5.4467,-5.4521,-5.4536,-5.4599,-5.4644,-5.4698,-5.4718,-5.4795,-5.4814,-5.4844,-5.4914,-5.4933,-5.5015,-5.5022,-5.5124,-5.5119,-5.5108,-5.5108,-5.5168,-5.5162,-5.536,-5.5386,-5.5222,-5.5224,-5.5225,0,-5.4427,-5.4488,-5.4549,-5.459,-5.4621,-5.4687,-5.4729,-5.4743,-5.4787,-5.4849,-5.4895,-5.4964,-5.502,-5.5131,-5.516,-5.5223,-5.5218,-5.5284,-5.5228,-5.5225,-5.5219,-5.5216,-5.5222,-5.5294,-5.5296,-5.5297,-5.5298,0,-5.4571,-5.458,-5.4642,-5.4708,-5.4758,-5.4811,-5.486,-5.4894,-5.4915,-5.4964,-5.5036,-5.508,-5.5165,-5.5233,-5.5297,-5.5325,-5.5315,-5.5316,-5.5333,-5.5332,-5.5324,-5.5329,-5.5137,-5.5311,-5.531,-5.5309,-5.5308,-5.5307,-5.4673,-5.4727,-5.4779,-5.4847,-5.4887,-5.4934,-5.4988,-5.5016,-5.5076,-5.5148,-5.5153,-5.5231,-5.5279,-5.5364,-5.5396,-5.5456,-5.5437,-5.5462,-5.5468,-5.5474,-5.5479,-5.5315,-5.5468,-5.5467,-5.5467,-5.5467,-5.5467,0,-5.4817,-5.485,-5.4913,-5.4985,-5.5039,-5.5027,-5.5082,-5.5127,-5.5196,-5.5243,-5.5299,-5.5382,-5.5448,-5.5483,-5.5549,-5.559,-5.5588,-5.5607,-5.5604,-5.5611,-5.5493,-5.5472,-5.5608,-5.5608,-5.5608,-5.5608,-5.5608,-5.5608,-5.4898,-5.499,-5.5005,-5.5116,-5.5148,-5.5226,-5.5259,-5.5302,-5.534,-5.5433,-5.5489,-5.5512,-5.5554,-5.5623,-5.5683,-5.5691,-5.5716,-5.5738,-5.5744,-5.5633,-5.5619,-5.5605,-5.5585,-5.5743,-5.5743,-5.5856,-5.5857,-5.5858]}]]